Погода в Энкарнасьоне

Парагвай     27°19′01″S   55°52′28″W
темп.,
°C
ветер,
м/с
пор.,
м/с
влажн.,
%
обл.,
%
осадки,
мм/ч
давл.,
гПа
погр.,
м
16 мая, вс
вс1623:00+15юв11916 0.0 101815
02:00+13всв11865 0.0 101711
05:00+13в11854 0.0 101712
08:00+17св116994 0.0 1019136
11:00+23в115194 0.0 1019479
14:00+25зюз12480 0.0 10161461
17:00+19ю22740 0.0 101713
20:00+16юв11860 0.0 101811
17 мая, пн
пн1723:00+14юв11863 0.0 101811
02:00+14ю118835 0.0 101811
05:00+13ююв119122 0.0 101811
08:00+17юв12740 0.0 1020156
11:00+23ю24530 0.0 10191247
14:00+24ю34482 0.0 10171669
17:00+18ю22741 0.0 101713
20:00+15ююв11881 0.0 101911
18 мая, вт
вт1823:00+13юв119231 0.0 101911
02:00+12в11955 0.0 101810
05:00+11вюв11960 0.0 101810
08:00+15всв12800 0.0 1019138
11:00+23вюв11496 0.0 1018871
14:00+24ю22405 0.0 10161196
17:00+17ю22661 0.0 101515
20:00+14вюв22805 0.0 101627
19 мая, ср
ср1923:00+12в22855 0.0 101631
02:00+11в22875 0.0 101521
05:00+10всв118746 0.0 101515
08:00+14всв246714 0.0 1016149
11:00+23всв233961 0.0 1015543
14:00+26всв233119 0.0 1012829
17:00+19в01525 0.0 101211
20:00+16вюв22615 0.0 101317
20 мая, чт
чт2023:00+15всв23595 0.0 101244
02:00+15в22600 0.0 101132
05:00+14св28656 0.0 1011132
08:00+16в2763100 0.0 1013170
11:00+18в2563100 0.0 1013159
14:00+23юв3452100 0.1 1011452
17:00+17юв2787100 0.4 1012156
20:00+16в31195100 2.5 1013291